Tracking 23611 objects as of 17-Sep-2021
HD Live streaming from Space Station
objects crossing your sky now
Track INSPIRATION-4

DELTA 1 DEB

Track DELTA 1 DEB now!
10-day predictions


NORAD ID: 13564
Int'l Code: 1978-026FB
Perigee: 798.2 km
Apogee: 1,099.9 km
Inclination: 98.7 °
Period: 103.9 minutes
Semi major axis: 7320 km
RCS: 0.0124 m2 (small)
Launch date: March 5, 1978
Source: United States (US)
Launch site: AIR FORCE WESTERN TEST RANGE (AFWTR)

Note: This is SATELLITE DEBRIS
aabbcc
Your satellite tracking list
Your tracking list is empty




NASA's NSSDC Master Catalog

Two Line Element Set (TLE):
1 13564U 78026FB  21260.49713896  .00000116  00000-0  11491-3 0  9997
2 13564  98.7361 271.7438 0206087   0.1712 152.0152 13.86207173980372
Source of the keplerian elements: AFSPC